GW4305 Weather Reports


time (UTC)temp
F
wind
direction
speed
knots
gust
knots
rain 1hr
in
rain 24hr
in
rain mn
in
humidity
%
barometer
mb
20260906234146 58 256 0.0 0.9 0.00 0.09 0.09 85 1017.2
20260906233646 58 269 0.0 0.9 0.00 0.09 0.09 85 1017.1
20260906233145 58 274 0.0 0.9 0.00 0.09 0.09 87 1017.3
20260906232640 58 255 0.0 0.0 0.00 0.09 0.09 90 1017.4
20260906232135 58 10 0.9 1.7 0.00 0.09 0.09 88 1017.4
20260906231630 58 49 0.0 0.9 0.00 0.09 0.09 89 1017.3
20260906231125 58 263 0.0 0.0 0.00 0.09 0.09 90 1017.3
20260906230624 58 31 0.0 2.6 0.00 0.09 0.09 89 1017.3
20260906230118 58 35 0.0 1.7 0.00 0.09 0.09 90 1017.2
20260906225618 58 65 0.0 0.9 0.00 0.09 0.09 90 1017.5
20260906225115 58 282 0.0 0.9 0.00 0.09 0.09 90 1017.4
20260906224609 58 313 0.0 0.0 0.00 0.09 0.09 90 1017.5
20260906224106 58 335 0.0 0.0 0.00 0.09 0.09 90 1017.5
20260906223602 57 287 0.0 0.9 0.00 0.09 0.09 90 1017.8
20260906223101 58 299 0.0 1.7 0.00 0.09 0.09 90 1017.5
20260906222600 58 338 0.0 0.0 0.00 0.09 0.09 91 1017.5
20260906222058 57 18 0.0 0.9 0.00 0.09 0.09 90 1017.6
20260906221556 57 55 0.0 1.7 0.00 0.09 0.09 90 1017.6
20260906221052 57 279 0.0 0.0 0.00 0.09 0.09 91 1017.5
20260906220547 57 60 0.9 1.7 0.00 0.09 0.09 90 1017.8
20260906220042 57 307 0.0 0.9 0.00 0.09 0.09 91 1017.8
20260906215540 57 31 0.0 1.7 0.00 0.09 0.09 90 1018.0
20260906215038 57 291 0.0 0.0 0.00 0.09 0.09 91 1017.8
20260906214532 57 305 0.0 1.7 0.00 0.09 0.09 89 1018.0
20260906214027 57 262 0.0 0.0 0.00 0.09 0.09 91 1017.8
20260906213526 57 290 0.0 0.0 0.00 0.09 0.09 91 1017.7
20260906213021 57 276 0.0 0.0 0.00 0.09 0.09 91 1018.0
20260906212515 56 223 0.0 0.9 0.00 0.09 0.09 91 1017.7
20260906212010 56 320 0.0 0.0 0.00 0.09 0.09 93 1017.7
20260906211504 56 69 0.0 0.9 0.00 0.09 0.09 92 1017.6
20260906211000 56 271 0.0 0.0 0.00 0.09 0.09 93 1017.8
20260906210454 56 252 0.0 0.0 0.00 0.09 0.09 93 1018.0
20260906205948 55 255 0.0 0.9 0.00 0.09 0.09 93 1018.0
20260906205444 55 282 0.0 0.0 0.00 0.09 0.09 95 1018.0
20260906204940 55 286 0.0 0.9 0.00 0.09 0.09 96 1018.2
20260906204440 55 297 0.0 0.0 0.00 0.09 0.09 97 1017.8
20260906203938 55 290 0.0 0.0 0.00 0.09 0.09 97 1018.1
20260906203434 54 269 0.0 0.0 0.00 0.09 0.09 98 1018.1
20260906202931 54 276 0.0 0.0 0.00 0.09 0.09 97 1018.2
20260906202431 54 251 0.0 0.9 0.00 0.09 0.09 97 1018.2
20260906201926 53 284 0.0 0.0 0.00 0.09 0.09 98 1018.2
20260906201420 53 284 0.0 0.9 0.00 0.09 0.09 98 1018.3
20260906200915 53 67 0.0 0.9 0.00 0.09 0.09 98 1018.1
20260906200411 54 29 0.0 0.0 0.00 0.09 0.09 98 1018.3
20260906195906 54 37 0.0 0.0 0.00 0.09 0.09 98 1018.3
20260906195402 53 30 0.0 0.0 0.00 0.09 0.09 98 1018.4
20260906194857 53 30 0.0 0.0 0.00 0.09 0.09 98 1018.4
20260906194353 53 30 0.0 0.0 0.00 0.09 0.09 99 1018.4
20260906193849 52 41 0.0 0.0 0.00 0.09 0.09 99 1018.4
20260906193343 52 34 0.0 0.0 0.00 0.09 0.09 99 1018.4
20260906192838 52 33 0.0 0.9 0.00 0.09 0.09 99 1018.3
20260906192333 53 32 0.0 0.0 0.00 0.09 0.09 99 1018.6
20260906191832 52 32 0.0 0.0 0.00 0.09 0.09 99 1018.5
20260906191327 52 32 0.0 0.0 0.00 0.09 0.09 99 1018.5
20260906190822 52 32 0.0 0.0 0.05 0.09 0.09 99 1018.6
20260906190321 52 33 0.0 0.0 0.05 0.09 0.09 99 1018.7
20260906185820 52 33 0.0 0.0 0.00 0.08 0.08 99 1018.7
20260906185319 52 33 0.0 0.0 0.00 0.08 0.08 99 1018.7
20260906184814 52 33 0.0 0.0 0.00 0.08 0.08 99 1018.8
20260906184309 52 33 0.0 0.0 0.00 0.08 0.08 99 1018.8
20260906183805 51 33 0.0 0.0 0.00 0.08 0.08 99 1019.2
20260906183301 51 33 0.0 0.0 0.00 0.08 0.08 99 1018.8
20260906182801 51 33 0.0 0.0 0.07 0.08 0.08 99 1019.0
20260906182257 51 33 0.0 0.9 0.07 0.08 0.08 99 1019.1
20260906181752 51 44 0.0 0.0 0.00 0.07 0.07 99 1018.8
20260906181248 51 44 0.0 0.0 0.00 0.07 0.07 99 1019.1
20260906180743 50 44 0.0 0.0 0.00 0.07 0.07 99 1019.2
20260906180238 50 44 0.0 0.0 0.05 0.07 0.07 99 1019.0
20260906175736 50 44 0.0 0.0 0.05 0.07 0.07 99 1019.0
20260906175231 50 44 0.0 0.0 0.00 0.06 0.06 99 1019.1
20260906174730 50 68 0.0 0.0 0.00 0.06 0.06 99 1019.1
20260906174229 50 75 0.0 0.9 0.00 0.06 0.06 99 1019.3
20260906173719 50 269 0.0 0.0 0.00 0.06 0.06 99 1019.1
20260906173215 50 270 0.0 0.0 0.00 0.06 0.06 99 1019.4
20260906172714 50 294 0.0 0.0 0.07 0.06 0.06 99 1019.2
20260906172210 50 284 0.0 0.0 0.07 0.06 0.06 99 1019.3
20260906171710 50 246 0.0 0.0 0.00 0.05 0.05 99 1019.3
20260906171205 50 229 0.0 0.0 0.00 0.05 0.05 99 1019.5
20260906170701 50 302 0.0 0.0 0.00 0.05 0.05 99 1019.4
20260906170201 49 251 0.0 0.0 0.00 0.05 0.05 99 1019.5
20260906165657 49 249 0.0 0.0 0.00 0.05 0.05 99 1019.6
20260906165152 49 257 0.0 0.0 0.00 0.05 0.05 99 1019.6
20260906164651 49 257 0.0 0.0 0.00 0.05 0.05 99 1019.5
20260906164147 49 258 0.0 0.0 0.00 0.05 0.05 99 1019.8
20260906163643 49 263 0.0 0.0 0.00 0.05 0.05 99 1019.7
20260906163138 49 263 0.0 0.0 0.00 0.05 0.05 99 1019.8
20260906162635 49 263 0.0 0.0 0.00 0.05 0.05 99 1019.8
20260906162129 48 263 0.0 0.0 0.00 0.05 0.05 99 1019.8
20260906161624 48 262 0.0 0.0 0.00 0.05 0.05 99 1020.0
20260906161123 48 252 0.0 0.0 0.00 0.05 0.05 99 1019.7
20260906160622 48 251 0.0 0.0 0.00 0.05 0.05 99 1020.0
20260906160121 48 295 0.0 0.0 0.00 0.05 0.05 99 1019.8
20260906155619 48 244 0.0 0.0 0.00 0.05 0.05 99 1020.0
20260906155115 48 128 0.0 0.0 0.00 0.05 0.05 99 1020.1
20260906154610 48 292 0.0 0.0 0.00 0.05 0.05 99 1020.0
20260906154108 48 290 0.0 0.0 0.00 0.05 0.05 99 1019.8
20260906153608 48 290 0.0 0.0 0.00 0.05 0.05 99 1019.7
20260906153103 48 291 0.0 0.0 0.00 0.05 0.05 99 1020.0
20260906152557 48 301 0.0 0.0 0.00 0.05 0.05 99 1020.0
20260906152056 48 296 0.0 0.0 0.00 0.05 0.05 99 1020.2
20260906151546 48 304 0.0 0.0 0.00 0.05 0.05 99 1019.8
20260906151042 48 291 0.0 0.0 0.00 0.05 0.05 99 1019.7
20260906150537 48 299 0.0 0.0 0.00 0.05 0.05 99 1019.7
20260906150032 48 300 0.0 0.0 0.00 0.05 0.05 99 1019.4
20260906145530 48 296 0.0 0.0 0.00 0.05 0.05 99 1019.7
20260906145026 48 303 0.0 0.0 0.00 0.05 0.05 99 1019.8
20260906144515 48 265 0.0 0.0 0.00 0.05 0.05 99 1019.8
20260906144010 48 247 0.0 0.0 0.00 0.05 0.05 99 1020.2
20260906143505 48 246 0.0 0.0 0.00 0.05 0.05 99 1020.0
20260906143002 48 271 0.0 0.0 0.00 0.05 0.05 99 1020.1
20260906142500 48 270 0.0 0.0 0.00 0.05 0.05 99 1020.1
20260906141950 48 281 0.0 0.0 0.00 0.05 0.05 99 1019.7
20260906141449 48 284 0.0 0.0 0.00 0.05 0.05 99 1019.8
20260906140944 47 284 0.0 0.0 0.00 0.05 0.05 99 1020.0
20260906140439 47 283 0.0 0.0 0.00 0.05 0.05 99 1020.0
20260906135936 47 293 0.0 0.0 0.00 0.05 0.05 99 1019.7
20260906135430 47 293 0.0 0.0 0.00 0.05 0.05 99 1020.1
20260906134926 47 293 0.0 0.0 0.00 0.05 0.05 99 1020.1
20260906134421 47 281 0.0 0.0 0.00 0.05 0.05 99 1020.0
20260906133916 47 275 0.0 0.0 0.00 0.05 0.05 99 1019.8
20260906133412 47 276 0.0 0.0 0.00 0.05 0.05 99 1020.1
20260906132907 47 276 0.0 0.0 0.00 0.05 0.05 99 1020.0
20260906132402 47 276 0.0 0.0 0.00 0.05 0.05 99 1020.1
20260906131858 47 287 0.0 0.0 0.00 0.05 0.05 99 1020.0
20260906131353 47 281 0.0 0.0 0.00 0.05 0.05 99 1020.2
20260906130849 47 281 0.0 0.0 0.00 0.05 0.05 99 1020.3
20260906130348 47 285 0.0 0.0 0.00 0.05 0.05 99 1020.5
20260906125847 47 290 0.0 0.0 0.00 0.05 0.05 99 1020.4
20260906125344 47 290 0.0 0.0 0.00 0.05 0.05 99 1020.4
20260906124839 47 287 0.0 0.0 0.00 0.05 0.05 99 1020.4
20260906124335 47 287 0.0 0.0 0.00 0.05 0.05 99 1020.3
20260906123834 47 287 0.0 0.0 0.05 0.05 0.05 99 1020.4
20260906123329 47 287 0.0 0.0 0.12 0.05 0.05 99 1020.5
20260906122829 47 287 0.0 0.0 0.14 0.04 0.04 99 1020.5
20260906122324 47 288 0.0 0.0 0.07 0.03 0.03 99 1020.7
20260906121821 47 289 0.0 0.0 0.05 0.02 0.02 99 1020.5
20260906121316 47 287 0.0 0.0 0.00 0.01 0.01 99 1020.5
20260906120813 47 287 0.0 0.0 0.00 0.01 0.01 99 1020.5
20260906120308 47 287 0.0 0.0 0.00 0.01 0.01 99 1020.7
20260906115804 47 287 0.0 0.0 0.00 0.01 0.01 99 1021.0
20260906115259 47 278 0.0 0.0 0.00 0.01 0.01 99 1021.0
20260906114758 47 278 0.0 0.0 0.07 0.01 0.01 99 1021.2
20260906114249 47 278 0.0 0.0 0.07 0.01 0.01 99 1021.5
20260906113744 47 278 0.0 0.0 0.00 0.00 0.00 99 1021.3
20260906113243 47 278 0.0 0.0 0.00 0.00 0.00 99 1021.4
20260906112743 47 278 0.0 0.0 0.00 0.00 0.00 99 1021.5
20260906112239 46 278 0.0 0.0 0.00 0.00 0.00 99 1021.5
20260906111738 46 278 0.0 0.0 0.00 0.00 0.00 99 1021.6
20260906111233 46 278 0.0 0.0 0.00 0.00 0.00 99 1021.5
20260906110728 46 277 0.0 0.0 0.00 0.00 0.00 99 1021.6
20260906110218 46 279 0.0 0.0 0.00 0.00 0.00 99 1021.7
20260906105717 46 278 0.0 0.0 0.00 0.00 0.00 99 1021.8
20260906105213 46 278 0.0 0.0 0.00 0.00 0.00 99 1021.7
20260906104713 46 281 0.0 0.0 0.00 0.00 0.00 99 1021.8
20260906104212 46 281 0.0 0.0 0.00 0.00 0.00 99 1021.8
20260906103709 47 282 0.0 0.0 0.00 0.00 0.00 99 1022.1
20260906103205 46 282 0.0 0.0 0.00 0.00 0.00 99 1021.7
20260906102701 46 278 0.0 0.0 0.00 0.00 0.00 99 1021.7
20260906102200 46 278 0.0 0.0 0.00 0.00 0.00 99 1021.8
20260906101659 46 290 0.0 0.0 0.00 0.00 0.00 99 1021.4
20260906101155 46 290 0.0 0.0 0.00 0.00 0.00 99 1021.3
20260906100651 47 322 0.0 0.0 0.00 0.00 0.00 99 1021.4
20260906100150 47 280 0.0 0.0 0.00 0.00 0.00 99 1021.5
20260906095645 47 280 0.0 0.0 0.00 0.00 0.00 99 1021.5
20260906095141 47 279 0.0 0.0 0.00 0.00 0.00 99 1021.3
20260906094639 47 278 0.0 0.0 0.00 0.00 0.00 99 1021.4
20260906094135 47 285 0.0 0.0 0.00 0.00 0.00 99 1021.4
20260906093632 47 300 0.0 0.0 0.00 0.00 0.00 99 1021.5
20260906093126 47 302 0.0 0.0 0.00 0.00 0.00 99 1021.7
20260906092621 47 290 0.0 0.0 0.00 0.00 0.00 99 1021.8
20260906092116 47 274 0.0 0.0 0.00 0.00 0.00 99 1021.8
20260906091612 48 274 0.0 0.0 0.00 0.00 0.00 99 1022.0
20260906091108 48 274 0.0 0.0 0.00 0.00 0.00 99 1022.0
20260906090603 48 285 0.0 0.0 0.00 0.00 0.00 99 1021.6
20260906085602 48 276 0.0 0.0 0.00 0.00 0.00 99 1021.8
20260906085102 48 277 0.0 0.0 0.00 0.00 0.00 99 1021.8
20260906084556 48 283 0.0 0.0 0.00 0.00 0.00 99 1022.1
20260906084055 48 282 0.0 0.0 0.00 0.00 0.00 99 1022.0
20260906083551 48 281 0.0 0.0 0.00 0.00 0.00 99 1022.3
20260906083050 48 280 0.0 0.0 0.00 0.00 0.00 99 1022.4
20260906082546 47 280 0.0 0.0 0.00 0.00 0.00 99 1022.5
20260906082042 47 280 0.0 0.0 0.00 0.00 0.00 99 1022.5
20260906081538 47 280 0.0 0.0 0.00 0.00 0.00 99 1022.5
20260906081033 47 280 0.0 0.0 0.00 0.00 0.00 99 1022.6
20260906080529 47 280 0.0 0.0 0.00 0.00 0.00 99 1022.6
20260906080025 47 280 0.0 0.0 0.00 0.00 0.00 99 1022.7
20260906075519 47 280 0.0 0.0 0.00 0.00 0.00 99 1022.7
20260906075014 47 280 0.0 0.0 0.00 0.00 0.00 99 1022.6
20260906074509 48 280 0.0 0.0 0.00 0.00 0.00 99 1022.6
20260906074007 48 280 0.0 0.0 0.00 0.00 0.00 99 1022.5
20260906073502 48 280 0.0 0.0 0.00 0.00 0.00 99 1022.6
20260906072958 48 280 0.0 0.0 0.00 0.00 0.00 99 1022.5
20260906072453 48 280 0.0 0.0 0.00 0.00 0.00 99 1022.7
20260906071949 48 280 0.0 0.0 0.00 0.00 0.00 99 1022.7
20260906071445 48 280 0.0 0.0 0.00 0.00 0.00 99 1022.7
20260906070940 48 280 0.0 0.0 0.00 0.00 0.00 99 1023.0
20260906070436 48 280 0.0 0.0 0.00 0.00 0.00 99 1023.0
20260906065932 48 281 0.0 0.0 0.00 0.00 0.00 99 1023.0
20260906065426 48 281 0.0 0.0 0.00 0.00 0.00 99 1023.0
20260906064922 48 281 0.0 0.0 0.00 0.00 0.00 99 1022.8
20260906064418 48 282 0.0 0.0 0.00 0.00 0.00 99 1022.8
20260906063913 48 281 0.0 0.0 0.00 0.00 0.00 99 1022.8
20260906063408 48 281 0.0 0.0 0.00 0.00 0.00 99 1023.0
20260906062903 48 281 0.0 0.0 0.00 0.00 0.00 99 1023.0
20260906062402 48 281 0.0 0.0 0.00 0.00 0.00 99 1022.8
20260906061857 48 281 0.0 0.0 0.00 0.00 0.00 99 1023.0
20260906061354 48 281 0.0 0.0 0.00 0.00 0.00 99 1022.8
20260906060848 48 281 0.0 0.0 0.00 0.00 0.00 99 1023.2
20260906060346 48 281 0.0 0.0 0.00 0.00 0.00 99 1023.1
20260906055842 48 281 0.0 0.0 0.00 0.28 0.28 99 1022.8
20260906055337 48 279 0.0 0.0 0.00 0.28 0.28 99 1022.8
20260906054832 48 287 0.0 0.0 0.00 0.28 0.28 99 1022.8
20260906054327 48 287 0.0 0.0 0.00 0.28 0.28 99 1022.8
20260906053824 48 287 0.0 0.0 0.00 0.28 0.28 99 1022.8
20260906053319 48 270 0.0 0.0 0.00 0.28 0.28 99 1022.8
20260906052814 48 268 0.0 0.0 0.00 0.28 0.28 99 1022.7
20260906052311 49 288 0.0 0.0 0.00 0.28 0.28 99 1023.1
20260906051808 49 289 0.0 0.0 0.00 0.28 0.28 99 1023.2
20260906051307 49 288 0.0 0.0 0.00 0.28 0.28 99 1023.1
20260906050803 49 279 0.0 0.0 0.00 0.28 0.28 99 1023.0
20260906050258 49 284 0.0 0.0 0.00 0.28 0.28 99 1023.1
20260906045756 49 268 0.0 0.0 0.00 0.28 0.28 99 1023.2
20260906045251 49 276 0.0 0.0 0.00 0.28 0.28 99 1023.1
20260906044747 49 275 0.0 0.0 0.00 0.28 0.28 99 1023.1
20260906044242 49 279 0.0 0.0 0.00 0.28 0.28 99 1023.1
20260906043738 49 292 0.0 0.0 0.00 0.28 0.28 99 1023.2
20260906043234 49 292 0.0 0.0 0.00 0.28 0.28 99 1023.2
20260906042733 49 295 0.0 0.0 0.00 0.28 0.28 99 1023.4
20260906042232 49 281 0.0 0.0 0.00 0.28 0.28 99 1023.4
20260906041727 49 281 0.0 0.0 0.00 0.28 0.28 99 1023.2
20260906041222 49 281 0.0 0.0 0.00 0.28 0.28 99 1023.3
20260906040719 49 281 0.0 0.0 0.00 0.28 0.28 99 1023.2
20260906040213 49 281 0.0 0.0 0.00 0.28 0.28 99 1023.1
20260906035709 49 281 0.0 0.0 0.00 0.28 0.28 99 1023.1
20260906035204 49 280 0.0 0.0 0.00 0.28 0.28 99 1023.2
20260906034658 49 280 0.0 0.0 0.00 0.28 0.28 99 1023.0
20260906034153 49 284 0.0 0.0 0.00 0.28 0.28 99 1022.8
20260906033650 49 284 0.0 0.0 0.00 0.28 0.28 99 1022.8
20260906033149 49 284 0.0 0.0 0.00 0.28 0.28 99 1022.7
20260906032646 49 284 0.0 0.0 0.00 0.28 0.28 99 1022.7
20260906032146 49 284 0.0 0.0 0.00 0.28 0.28 99 1022.5
20260906031641 49 284 0.0 0.0 0.00 0.28 0.28 99 1022.6
20260906031136 49 284 0.0 0.0 0.00 0.28 0.28 99 1022.4
20260906030635 48 284 0.0 0.0 0.00 0.28 0.28 99 1022.3
20260906030131 48 284 0.0 0.0 0.00 0.28 0.28 99 1022.2
20260906025630 48 284 0.0 0.0 0.00 0.28 0.28 99 1022.2
20260906025130 49 284 0.0 0.0 0.00 0.28 0.28 99 1022.2
20260906024624 49 284 0.0 0.0 0.00 0.28 0.28 99 1022.1
20260906024119 49 285 0.0 0.0 0.00 0.28 0.28 99 1022.2
20260906023615 49 285 0.0 0.0 0.00 0.28 0.28 99 1022.3
20260906023109 49 276 0.0 0.0 0.00 0.28 0.28 99 1022.1
20260906022604 50 276 0.0 0.0 0.00 0.28 0.28 99 1022.3
20260906022100 50 277 0.0 0.0 0.00 0.28 0.28 98 1022.2
20260906021555 50 277 0.0 0.0 0.00 0.28 0.28 98 1022.2
20260906021054 50 355 0.0 0.0 0.00 0.28 0.28 98 1022.2
20260906020548 50 277 0.0 0.0 0.00 0.28 0.28 98 1022.2
20260906020048 50 300 0.0 0.0 0.00 0.28 0.28 98 1022.4
20260906015542 50 284 0.0 0.0 0.00 0.28 0.28 98 1022.2
20260906015042 50 283 0.0 0.0 0.00 0.28 0.28 98 1022.4
20260906014536 50 304 0.0 0.0 0.00 0.28 0.28 98 1022.3
20260906014032 50 280 0.0 0.0 0.00 0.28 0.28 98 1022.3
20260906013527 50 280 0.0 0.0 0.00 0.28 0.28 98 1022.4
20260906013023 50 285 0.0 0.0 0.00 0.28 0.28 98 1022.4
20260906012518 50 253 0.0 0.0 0.00 0.28 0.28 98 1022.4
20260906012017 50 285 0.0 0.0 0.00 0.28 0.28 98 1022.4
20260906011514 50 285 0.0 0.0 0.00 0.28 0.28 98 1022.5
20260906011013 50 300 0.0 0.0 0.00 0.28 0.28 98 1022.5
20260906010509 50 277 0.0 0.0 0.00 0.28 0.28 97 1022.5
20260906010005 50 299 0.0 0.0 0.00 0.28 0.28 97 1022.3
20260906005504 51 285 0.0 0.0 0.00 0.28 0.28 97 1022.3
20260906005002 51 300 0.0 0.0 0.00 0.28 0.28 97 1022.1
20260906004457 51 271 0.0 0.0 0.00 0.28 0.28 97 1022.2
20260906003952 51 277 0.0 0.0 0.00 0.28 0.28 97 1022.2
20260906003448 51 304 0.0 0.0 0.00 0.28 0.28 98 1022.2
20260906002943 51 275 0.0 0.0 0.00 0.28 0.28 97 1022.2
20260906002443 51 283 0.0 0.0 0.00 0.28 0.28 97 1022.2
20260906001937 51 308 0.0 0.0 0.00 0.28 0.28 98 1022.2
20260906001433 51 300 0.0 0.0 0.00 0.28 0.28 98 1022.3
20260906000928 51 269 0.0 0.0 0.00 0.28 0.28 98 1022.1
20260906000425 51 267 0.0 0.0 0.00 0.28 0.28 98 1022.2
20260905235918 51 307 0.0 0.0 0.00 0.28 0.28 98 1022.2
20260905235413 51 315 0.0 0.0 0.05 0.28 0.28 98 1022.0
20260905234908 51 104 0.0 1.7 0.05 0.28 0.28 98 1022.1